Tracking 31027 objects as of 19-Jul-2025
HD Live streaming from Space Station
objects crossing your sky now

THORAD AGENA D DEB

Track THORAD AGENA D DEB now!
10-day predictions


NORAD ID: 42497
Int'l Code: 1970-025RB
Perigee: 885.1 km
Apogee: 928.1 km
Inclination: 100.0 °
Period: 103.0 minutes
Semi major axis: 7277 km
RCS: Unknown
Launch date: April 8, 1970
Source: United States (US)
Launch site: AIR FORCE WESTERN TEST RANGE (AFWTR)

Note: This is SATELLITE DEBRIS
Your satellite tracking list
NUSAT-20 (GRACE)
Track 1 satellite(s)




NASA's NSSDC Master Catalog

Two Line Element Set (TLE):
1 42497U 70025RB  25199.40750367  .00001481  00000-0  10690-2 0  9990
2 42497 100.0239  44.9210 0029584 324.6042  35.3154 13.98364997591401
Source of the keplerian elements: AFSPC